Wetterdaten: Donnerstag, 20.11.2014
Datum Zeit Temperatur Luftfeuchte Luftdruck Regen Wind Richtung Richtung Taupunkt Windchill Windben
20.11.2014 00:00 -0,7 C 97 % 1024,0 hPa 0,0 l/m 0,0 km/h (0 Bft) SO 135 -1,1 C 7,8 C 0,0 km/h (0 Bft)
20.11.2014 00:05 -0,9 C 97 % 1024,0 hPa 0,0 l/m 0,0 km/h (0 Bft) SO 135 -1,3 C 7,8 C 0,0 km/h (0 Bft)
20.11.2014 00:10 -1,0 C 97 % 1024,0 hPa 0,0 l/m 0,0 km/h (0 Bft) SO 135 -1,4 C 7,8 C 0,0 km/h (0 Bft)
20.11.2014 00:15 -1,0 C 97 % 1023,8 hPa 0,0 l/m 0,0 km/h (0 Bft) SO 135 -1,4 C 7,8 C 0,0 km/h (0 Bft)
20.11.2014 00:20 -1,2 C 97 % 1023,8 hPa 0,0 l/m 0,0 km/h (0 Bft) SO 135 -1,6 C 7,8 C 0,0 km/h (0 Bft)
20.11.2014 00:25 -1,2 C 97 % 1023,8 hPa 0,0 l/m 0,0 km/h (0 Bft) SO 135 -1,6 C 7,8 C 0,0 km/h (0 Bft)
20.11.2014 00:30 -1,2 C 97 % 1023,8 hPa 0,0 l/m 0,0 km/h (0 Bft) SO 135 -1,6 C 7,8 C 0,0 km/h (0 Bft)
20.11.2014 00:35 -1,1 C 97 % 1023,6 hPa 0,0 l/m 0,0 km/h (0 Bft) SO 135 -1,5 C 7,8 C 0,0 km/h (0 Bft)
20.11.2014 00:40 -1,2 C 97 % 1023,6 hPa 0,0 l/m 0,0 km/h (0 Bft) SO 135 -1,6 C 7,8 C 0,0 km/h (0 Bft)
20.11.2014 00:45 -1,2 C 97 % 1023,6 hPa 0,0 l/m 0,0 km/h (0 Bft) SO 135 -1,6 C 7,8 C 0,0 km/h (0 Bft)
20.11.2014 00:50 -1,2 C 97 % 1023,6 hPa 0,0 l/m 0,0 km/h (0 Bft) SO 135 -1,6 C 7,8 C 0,0 km/h (0 Bft)
20.11.2014 00:55 -0,9 C 97 % 1023,6 hPa 0,0 l/m 0,0 km/h (0 Bft) SO 135 -1,3 C 7,8 C 0,0 km/h (0 Bft)
20.11.2014 01:00 -0,7 C 97 % 1023,6 hPa 0,0 l/m 0,0 km/h (0 Bft) SO 135 -1,1 C 7,8 C 0,0 km/h (0 Bft)
20.11.2014 01:05 -0,8 C 97 % 1023,6 hPa 0,0 l/m 0,0 km/h (0 Bft) SO 135 -1,2 C 7,8 C 0,0 km/h (0 Bft)
20.11.2014 01:10 -0,9 C 97 % 1023,6 hPa 0,0 l/m 0,0 km/h (0 Bft) SO 135 -1,3 C 7,8 C 0,0 km/h (0 Bft)
20.11.2014 01:15 -1,0 C 97 % 1023,4 hPa 0,0 l/m 0,0 km/h (0 Bft) SO 135 -1,4 C 7,8 C 0,0 km/h (0 Bft)
20.11.2014 01:20 -0,5 C 97 % 1023,4 hPa 0,0 l/m 0,0 km/h (0 Bft) SO 135 -0,9 C 7,8 C 0,0 km/h (0 Bft)
20.11.2014 01:25 -0,5 C 97 % 1023,4 hPa 0,0 l/m 0,0 km/h (0 Bft) SO 135 -0,9 C 7,8 C 0,0 km/h (0 Bft)
20.11.2014 01:30 -0,6 C 97 % 1023,4 hPa 0,0 l/m 0,0 km/h (0 Bft) SO 135 -1,0 C 7,8 C 0,0 km/h (0 Bft)
20.11.2014 01:35 -0,6 C 97 % 1023,4 hPa 0,0 l/m 0,0 km/h (0 Bft) SO 135 -1,0 C 7,8 C 0,0 km/h (0 Bft)
20.11.2014 01:40 -0,9 C 97 % 1023,4 hPa 0,0 l/m 0,0 km/h (0 Bft) SO 135 -1,3 C 7,8 C 0,0 km/h (0 Bft)
20.11.2014 01:45 -1,0 C 97 % 1023,4 hPa 0,0 l/m 0,0 km/h (0 Bft) SO 135 -1,4 C 7,8 C 0,0 km/h (0 Bft)
20.11.2014 01:50 -0,9 C 97 % 1023,4 hPa 0,0 l/m 0,0 km/h (0 Bft) SO 135 -1,3 C 7,8 C 0,0 km/h (0 Bft)
20.11.2014 01:55 -0,7 C 97 % 1023,4 hPa 0,0 l/m 0,0 km/h (0 Bft) SO 135 -1,1 C 7,8 C 0,0 km/h (0 Bft)
20.11.2014 02:00 -0,9 C 97 % 1023,7 hPa 0,0 l/m 0,0 km/h (0 Bft) SO 135 -1,3 C 7,8 C 0,0 km/h (0 Bft)
20.11.2014 02:05 -1,1 C 97 % 1023,7 hPa 0,0 l/m 0,0 km/h (0 Bft) SO 135 -1,5 C 7,8 C 0,0 km/h (0 Bft)
20.11.2014 02:10 -1,2 C 97 % 1023,7 hPa 0,0 l/m 0,0 km/h (0 Bft) SO 135 -1,6 C 7,8 C 0,0 km/h (0 Bft)
20.11.2014 02:15 -1,0 C 97 % 1023,7 hPa 0,0 l/m 0,0 km/h (0 Bft) SO 135 -1,4 C 7,8 C 0,0 km/h (0 Bft)
20.11.2014 02:20 -0,9 C 97 % 1023,7 hPa 0,0 l/m 0,0 km/h (0 Bft) SO 135 -1,3 C 7,8 C 0,0 km/h (0 Bft)
20.11.2014 02:25 -1,0 C 97 % 1023,7 hPa 0,0 l/m 0,0 km/h (0 Bft) SO 135 -1,4 C 7,8 C 0,0 km/h (0 Bft)
20.11.2014 02:30 -0,9 C 97 % 1023,7 hPa 0,0 l/m 0,0 km/h (0 Bft) SO 135 -1,3 C 7,8 C 0,0 km/h (0 Bft)
20.11.2014 02:35 -0,9 C 97 % 1023,7 hPa 0,0 l/m 0,0 km/h (0 Bft) SO 135 -1,3 C 7,8 C 0,0 km/h (0 Bft)
20.11.2014 02:40 -1,0 C 97 % 1023,8 hPa 0,0 l/m 0,0 km/h (0 Bft) SO 135 -1,4 C 7,8 C 0,0 km/h (0 Bft)
20.11.2014 02:45 -0,7 C 97 % 1023,8 hPa 0,0 l/m 0,0 km/h (0 Bft) SO 135 -1,1 C 7,8 C 0,0 km/h (0 Bft)
20.11.2014 02:50 -0,5 C 97 % 1023,8 hPa 0,0 l/m 0,0 km/h (0 Bft) SO 135 -0,9 C 7,8 C 0,0 km/h (0 Bft)
20.11.2014 02:55 -0,7 C 97 % 1023,8 hPa 0,0 l/m 0,0 km/h (0 Bft) SO 135 -1,1 C 7,8 C 0,0 km/h (0 Bft)
20.11.2014 02:58 -0,7 C 97 % 1024,1 hPa 0,0 l/m 0,0 km/h (0 Bft) SO 135 -1,1 C 7,8 C 0,0 km/h (0 Bft)
20.11.2014 03:00 -0,7 C 97 % 1024,1 hPa 0,0 l/m 0,0 km/h (0 Bft) SO 135 -1,1 C 7,8 C 0,0 km/h (0 Bft)
20.11.2014 03:05 -0,9 C 97 % 1024,1 hPa 0,0 l/m 0,0 km/h (0 Bft) SO 135 -1,3 C 7,8 C 0,0 km/h (0 Bft)
20.11.2014 03:10 -1,0 C 97 % 1024,1 hPa 0,0 l/m 0,0 km/h (0 Bft) SO 135 -1,4 C 7,8 C 0,0 km/h (0 Bft)
20.11.2014 03:15 -0,9 C 97 % 1023,6 hPa 0,0 l/m 0,0 km/h (0 Bft) SO 135 -1,3 C 7,8 C 0,0 km/h (0 Bft)
20.11.2014 03:20 -0,9 C 97 % 1023,6 hPa 0,0 l/m 0,0 km/h (0 Bft) SO 135 -1,3 C 7,8 C 0,0 km/h (0 Bft)
20.11.2014 03:25 -1,1 C 97 % 1023,6 hPa 0,0 l/m 0,0 km/h (0 Bft) SO 135 -1,5 C 7,8 C 0,0 km/h (0 Bft)
20.11.2014 03:30 -1,3 C 97 % 1023,6 hPa 0,0 l/m 0,0 km/h (0 Bft) SO 135 -1,7 C 7,8 C 0,0 km/h (0 Bft)
20.11.2014 03:35 -1,3 C 97 % 1022,9 hPa 0,0 l/m 0,0 km/h (0 Bft) SO 135 -1,7 C 7,8 C 0,0 km/h (0 Bft)
20.11.2014 03:40 -1,0 C 97 % 1022,9 hPa 0,0 l/m 0,0 km/h (0 Bft) SO 135 -1,4 C 7,8 C 0,0 km/h (0 Bft)
20.11.2014 03:45 -0,9 C 97 % 1022,9 hPa 0,0 l/m 0,0 km/h (0 Bft) SO 135 -1,3 C 7,8 C 0,0 km/h (0 Bft)
20.11.2014 03:50 -1,2 C 97 % 1022,9 hPa 0,0 l/m 0,0 km/h (0 Bft) SO 135 -1,6 C 7,8 C 0,0 km/h (0 Bft)
20.11.2014 03:55 -1,0 C 97 % 1022,6 hPa 0,0 l/m 0,0 km/h (0 Bft) SO 135 -1,4 C 7,8 C 0,0 km/h (0 Bft)
20.11.2014 04:00 -0,8 C 97 % 1022,6 hPa 0,0 l/m 0,0 km/h (0 Bft) SO 135 -1,2 C 7,8 C 0,0 km/h (0 Bft)
20.11.2014 04:05 -0,8 C 97 % 1022,6 hPa 0,0 l/m 0,0 km/h (0 Bft) SO 135 -1,2 C 7,8 C 0,0 km/h (0 Bft)
20.11.2014 04:10 -1,1 C 97 % 1022,6 hPa 0,0 l/m 0,0 km/h (0 Bft) SO 135 -1,5 C 7,8 C 0,0 km/h (0 Bft)
20.11.2014 04:15 -1,1 C 97 % 1022,8 hPa 0,0 l/m 0,0 km/h (0 Bft) SO 135 -1,5 C 7,8 C 0,0 km/h (0 Bft)
20.11.2014 04:20 -1,1 C 97 % 1022,8 hPa 0,0 l/m 0,0 km/h (0 Bft) SO 135 -1,5 C 7,8 C 0,0 km/h (0 Bft)
20.11.2014 04:25 -1,1 C 97 % 1022,8 hPa 0,0 l/m 0,0 km/h (0 Bft) SO 135 -1,5 C 7,8 C 0,0 km/h (0 Bft)
20.11.2014 04:30 -1,1 C 97 % 1022,8 hPa 0,0 l/m 0,0 km/h (0 Bft) SO 135 -1,5 C 7,8 C 0,0 km/h (0 Bft)
20.11.2014 04:35 -0,8 C 97 % 1022,1 hPa 0,0 l/m 0,0 km/h (0 Bft) SO 135 -1,2 C 7,8 C 0,0 km/h (0 Bft)
20.11.2014 04:40 -0,8 C 97 % 1022,1 hPa 0,0 l/m 0,0 km/h (0 Bft) SO 135 -1,2 C 7,8 C 0,0 km/h (0 Bft)
20.11.2014 04:45 -0,8 C 97 % 1022,1 hPa 0,0 l/m 0,0 km/h (0 Bft) SO 135 -1,2 C 7,8 C 0,0 km/h (0 Bft)
20.11.2014 04:50 -0,8 C 97 % 1022,1 hPa 0,0 l/m 0,0 km/h (0 Bft) SO 135 -1,2 C 7,8 C 0,0 km/h (0 Bft)
20.11.2014 04:55 -0,8 C 97 % 1022,1 hPa 0,0 l/m 0,0 km/h (0 Bft) SO 135 -1,2 C 7,8 C 0,0 km/h (0 Bft)
20.11.2014 05:00 -0,8 C 97 % 1022,6 hPa 0,0 l/m 0,0 km/h (0 Bft) SO 135 -1,2 C 7,8 C 0,0 km/h (0 Bft)
20.11.2014 05:05 -0,8 C 97 % 1022,6 hPa 0,0 l/m 0,0 km/h (0 Bft) SO 135 -1,2 C 7,8 C 0,0 km/h (0 Bft)
20.11.2014 05:10 -0,8 C 97 % 1022,6 hPa 0,0 l/m 0,0 km/h (0 Bft) SO 135 -1,2 C 7,8 C 0,0 km/h (0 Bft)
20.11.2014 05:15 -0,8 C 97 % 1022,6 hPa 0,0 l/m 0,0 km/h (0 Bft) SO 135 -1,2 C 7,8 C 0,0 km/h (0 Bft)
20.11.2014 05:20 -0,8 C 97 % 1022,6 hPa 0,0 l/m 0,0 km/h (0 Bft) SO 135 -1,2 C 7,8 C 0,0 km/h (0 Bft)
20.11.2014 05:25 -0,8 C 97 % 1022,6 hPa 0,0 l/m 0,0 km/h (0 Bft) SO 135 -1,2 C 7,8 C 0,0 km/h (0 Bft)
20.11.2014 05:30 -0,8 C 97 % 1022,6 hPa 0,0 l/m 0,0 km/h (0 Bft) SO 135 -1,2 C 7,8 C 0,0 km/h (0 Bft)
20.11.2014 05:35 -0,8 C 97 % 1022,6 hPa 0,0 l/m 0,0 km/h (0 Bft) SO 135 -1,2 C 7,8 C 0,0 km/h (0 Bft)
20.11.2014 05:40 -0,8 C 97 % 1022,6 hPa 0,0 l/m 0,0 km/h (0 Bft) SO 135 -1,2 C 7,8 C 0,0 km/h (0 Bft)
20.11.2014 05:45 -0,8 C 97 % 1022,6 hPa 0,0 l/m 0,0 km/h (0 Bft) SO 135 -1,2 C 7,8 C 0,0 km/h (0 Bft)
20.11.2014 05:50 -0,8 C 97 % 1022,6 hPa 0,0 l/m 0,0 km/h (0 Bft) SO 135 -1,2 C 7,8 C 0,0 km/h (0 Bft)
20.11.2014 05:55 -0,8 C 97 % 1022,6 hPa 0,0 l/m 0,0 km/h (0 Bft) SO 135 -1,2 C 7,8 C 0,0 km/h (0 Bft)
20.11.2014 05:58 -0,8 C 97 % 1021,9 hPa 0,0 l/m 0,0 km/h (0 Bft) SO 135 -1,2 C 7,8 C 0,0 km/h (0 Bft)
20.11.2014 06:05 -0,8 C 97 % 1021,9 hPa 0,0 l/m 0,0 km/h (0 Bft) SO 135 -1,2 C 7,8 C 0,0 km/h (0 Bft)
20.11.2014 06:10 -0,8 C 97 % 1021,9 hPa 0,0 l/m 0,0 km/h (0 Bft) SO 135 -1,2 C 7,8 C 0,0 km/h (0 Bft)
20.11.2014 06:15 -2,0 C 96 % 1021,9 hPa 0,0 l/m 0,0 km/h (0 Bft) SO 135 -2,6 C 7,8 C 0,0 km/h (0 Bft)
20.11.2014 06:20 -2,3 C 96 % 1022,4 hPa 0,0 l/m 0,0 km/h (0 Bft) SO 135 -2,8 C 7,8 C 0,0 km/h (0 Bft)
20.11.2014 06:25 -2,5 C 96 % 1022,4 hPa 0,0 l/m 0,0 km/h (0 Bft) SO 135 -3,0 C 7,8 C 0,0 km/h (0 Bft)
20.11.2014 06:30 -2,6 C 96 % 1022,4 hPa 0,0 l/m 0,0 km/h (0 Bft) SO 135 -3,1 C 7,8 C 0,0 km/h (0 Bft)
20.11.2014 06:35 -2,4 C 96 % 1022,4 hPa 0,0 l/m 0,0 km/h (0 Bft) SO 135 -2,9 C 7,8 C 0,0 km/h (0 Bft)
20.11.2014 06:40 -2,3 C 96 % 1023,3 hPa 0,0 l/m 0,0 km/h (0 Bft) SO 135 -2,8 C 7,8 C 0,0 km/h (0 Bft)
20.11.2014 06:45 -2,7 C 96 % 1023,3 hPa 0,0 l/m 0,0 km/h (0 Bft) SO 135 -3,2 C 7,8 C 0,0 km/h (0 Bft)
20.11.2014 06:50 -2,8 C 96 % 1023,3 hPa 0,0 l/m 0,0 km/h (0 Bft) SO 135 -3,3 C 7,8 C 0,0 km/h (0 Bft)
20.11.2014 06:55 -2,8 C 96 % 1023,3 hPa 0,0 l/m 0,0 km/h (0 Bft) SO 135 -3,3 C 7,8 C 0,0 km/h (0 Bft)
20.11.2014 07:00 -2,4 C 96 % 1023,9 hPa 0,0 l/m 0,0 km/h (0 Bft) SO 135 -2,9 C 7,8 C 0,0 km/h (0 Bft)
20.11.2014 07:05 -2,0 C 96 % 1023,9 hPa 0,0 l/m 0,0 km/h (0 Bft) SO 135 -2,6 C 7,8 C 0,0 km/h (0 Bft)
20.11.2014 07:10 -2,1 C 96 % 1023,9 hPa 0,0 l/m 0,0 km/h (0 Bft) SO 135 -2,6 C 7,8 C 0,0 km/h (0 Bft)
20.11.2014 07:15 -2,1 C 96 % 1023,9 hPa 0,0 l/m 0,0 km/h (0 Bft) SO 135 -2,6 C 7,8 C 0,0 km/h (0 Bft)
20.11.2014 07:20 -2,1 C 96 % 1024,1 hPa 0,0 l/m 0,0 km/h (0 Bft) SO 135 -2,6 C 7,8 C 0,0 km/h (0 Bft)
20.11.2014 07:25 -2,0 C 96 % 1024,1 hPa 0,0 l/m 0,0 km/h (0 Bft) SO 135 -2,6 C 7,8 C 0,0 km/h (0 Bft)
20.11.2014 07:30 -2,0 C 96 % 1024,1 hPa 0,0 l/m 0,0 km/h (0 Bft) SO 135 -2,6 C 7,8 C 0,0 km/h (0 Bft)
20.11.2014 07:35 -2,0 C 96 % 1024,1 hPa 0,0 l/m 0,0 km/h (0 Bft) SO 135 -2,6 C 7,8 C 0,0 km/h (0 Bft)
20.11.2014 07:40 -2,0 C 96 % 1024,5 hPa 0,0 l/m 0,0 km/h (0 Bft) SO 135 -2,6 C 7,8 C 0,0 km/h (0 Bft)
20.11.2014 07:45 -1,6 C 96 % 1024,5 hPa 0,0 l/m 0,0 km/h (0 Bft) SO 135 -2,2 C 7,8 C 0,0 km/h (0 Bft)
20.11.2014 07:50 -1,5 C 96 % 1024,5 hPa 0,0 l/m 0,0 km/h (0 Bft) SO 135 -2,1 C 7,8 C 0,0 km/h (0 Bft)
20.11.2014 07:55 -1,6 C 96 % 1024,5 hPa 0,0 l/m 0,0 km/h (0 Bft) SO 135 -2,2 C 7,8 C 0,0 km/h (0 Bft)
20.11.2014 08:00 -1,4 C 96 % 1024,6 hPa 0,0 l/m 0,0 km/h (0 Bft) SO 135 -2,0 C 7,8 C 0,0 km/h (0 Bft)
20.11.2014 08:05 -1,6 C 96 % 1024,6 hPa 0,0 l/m 0,0 km/h (0 Bft) SO 135 -2,2 C 7,8 C 0,0 km/h (0 Bft)
20.11.2014 08:10 -1,9 C 96 % 1024,6 hPa 0,0 l/m 0,0 km/h (0 Bft) SO 135 -2,5 C 7,8 C 0,0 km/h (0 Bft)
20.11.2014 08:15 -1,9 C 96 % 1024,6 hPa 0,0 l/m 0,0 km/h (0 Bft) SO 135 -2,5 C 7,8 C 0,0 km/h (0 Bft)
20.11.2014 08:20 -1,7 C 96 % 1024,6 hPa 0,0 l/m 0,0 km/h (0 Bft) SO 135 -2,3 C 7,8 C 0,0 km/h (0 Bft)
20.11.2014 08:25 -1,7 C 96 % 1024,6 hPa 0,0 l/m 0,0 km/h (0 Bft) SO 135 -2,3 C 7,8 C 0,0 km/h (0 Bft)
20.11.2014 08:30 -1,6 C 96 % 1024,6 hPa 0,0 l/m 0,0 km/h (0 Bft) SO 135 -2,2 C 7,8 C 0,0 km/h (0 Bft)
20.11.2014 08:35 -0,9 C 96 % 1024,6 hPa 0,0 l/m 0,0 km/h (0 Bft) SO 135 -1,5 C 7,8 C 0,0 km/h (0 Bft)
20.11.2014 08:40 -0,8 C 96 % 1024,6 hPa 0,0 l/m 0,0 km/h (0 Bft) SO 135 -1,4 C 7,8 C 0,0 km/h (0 Bft)
20.11.2014 08:45 -0,8 C 96 % 1024,6 hPa 0,0 l/m 0,0 km/h (0 Bft) SO 135 -1,4 C 7,8 C 0,0 km/h (0 Bft)
20.11.2014 08:50 -0,8 C 96 % 1024,6 hPa 0,0 l/m 0,0 km/h (0 Bft) SO 135 -1,4 C 7,8 C 0,0 km/h (0 Bft)
20.11.2014 08:55 -0,7 C 96 % 1024,6 hPa 0,0 l/m 0,0 km/h (0 Bft) SO 135 -1,3 C 7,8 C 0,0 km/h (0 Bft)
20.11.2014 08:58 -0,5 C 96 % 1024,6 hPa 0,0 l/m 0,0 km/h (0 Bft) SO 135 -1,1 C 7,8 C 0,0 km/h (0 Bft)
20.11.2014 09:00 -0,5 C 96 % 1024,6 hPa 0,0 l/m 0,0 km/h (0 Bft) SO 135 -1,1 C 7,8 C 0,0 km/h (0 Bft)
20.11.2014 09:05 -0,4 C 96 % 1024,6 hPa 0,0 l/m 0,0 km/h (0 Bft) SO 135 -1,0 C 7,8 C 0,0 km/h (0 Bft)
20.11.2014 09:10 -0,3 C 96 % 1024,6 hPa 0,0 l/m 0,0 km/h (0 Bft) SO 135 -0,9 C 7,8 C 0,0 km/h (0 Bft)
20.11.2014 09:15 -0,2 C 96 % 1024,6 hPa 0,0 l/m 0,0 km/h (0 Bft) SO 135 -0,8 C 7,8 C 0,0 km/h (0 Bft)
20.11.2014 09:20 -0,2 C 96 % 1024,4 hPa 0,0 l/m 0,0 km/h (0 Bft) SO 135 -0,8 C 7,8 C 0,0 km/h (0 Bft)
20.11.2014 09:25 -0,3 C 96 % 1024,4 hPa 0,0 l/m 0,0 km/h (0 Bft) SO 135 -0,9 C 7,8 C 0,0 km/h (0 Bft)
20.11.2014 09:30 0,0 C 96 % 1024,4 hPa 0,0 l/m 0,0 km/h (0 Bft) SO 135 -0,6 C 7,8 C 0,0 km/h (0 Bft)
20.11.2014 09:35 0,1 C 96 % 1024,4 hPa 0,0 l/m 0,0 km/h (0 Bft) SO 135 -0,5 C 7,8 C 0,0 km/h (0 Bft)
20.11.2014 09:40 0,2 C 96 % 1024,1 hPa 0,0 l/m 0,0 km/h (0 Bft) SO 135 -0,4 C 7,8 C 0,0 km/h (0 Bft)
20.11.2014 09:45 0,2 C 96 % 1024,1 hPa 0,0 l/m 0,0 km/h (0 Bft) SO 135 -0,4 C 7,8 C 0,0 km/h (0 Bft)
20.11.2014 09:50 0,2 C 96 % 1024,1 hPa 0,0 l/m 0,0 km/h (0 Bft) SO 135 -0,4 C 7,8 C 0,0 km/h (0 Bft)
20.11.2014 09:55 0,3 C 96 % 1024,1 hPa 0,0 l/m 0,0 km/h (0 Bft) SO 135 -0,3 C 7,8 C 0,0 km/h (0 Bft)
20.11.2014 10:00 0,4 C 96 % 1024,1 hPa 0,0 l/m 0,0 km/h (0 Bft) SO 135 -0,2 C 7,8 C 0,0 km/h (0 Bft)
20.11.2014 10:05 0,7 C 96 % 1024,1 hPa 0,0 l/m 0,0 km/h (0 Bft) SO 135 0,1 C 7,8 C 0,0 km/h (0 Bft)
20.11.2014 10:10 0,9 C 96 % 1024,1 hPa 0,0 l/m 0,0 km/h (0 Bft) SO 135 0,3 C 7,8 C 0,0 km/h (0 Bft)
20.11.2014 10:15 1,2 C 96 % 1024,1 hPa 0,0 l/m 0,0 km/h (0 Bft) SO 135 0,6 C 7,8 C 0,0 km/h (0 Bft)
20.11.2014 10:20 1,4 C 96 % 1024,2 hPa 0,0 l/m 0,0 km/h (0 Bft) SO 135 0,8 C 7,8 C 0,0 km/h (0 Bft)
20.11.2014 10:25 1,7 C 96 % 1024,2 hPa 0,0 l/m 0,0 km/h (0 Bft) SO 135 1,1 C 7,8 C 0,0 km/h (0 Bft)
20.11.2014 10:30 1,7 C 96 % 1024,2 hPa 0,0 l/m 0,0 km/h (0 Bft) SO 135 1,1 C 7,8 C 0,0 km/h (0 Bft)
20.11.2014 10:35 1,5 C 96 % 1024,2 hPa 0,0 l/m 0,0 km/h (0 Bft) SO 135 0,9 C 7,8 C 0,0 km/h (0 Bft)
20.11.2014 10:40 1,5 C 96 % 1023,6 hPa 0,0 l/m 0,0 km/h (0 Bft) SO 135 0,9 C 7,8 C 0,0 km/h (0 Bft)
20.11.2014 10:45 1,7 C 96 % 1023,6 hPa 0,0 l/m 0,0 km/h (0 Bft) SO 135 1,1 C 7,8 C 0,0 km/h (0 Bft)
20.11.2014 10:50 2,1 C 96 % 1023,6 hPa 0,0 l/m 0,0 km/h (0 Bft) SO 135 1,5 C 7,8 C 0,0 km/h (0 Bft)
20.11.2014 10:55 1,9 C 96 % 1023,6 hPa 0,0 l/m 0,0 km/h (0 Bft) SO 135 1,3 C 7,8 C 0,0 km/h (0 Bft)
20.11.2014 11:00 1,8 C 96 % 1023,9 hPa 0,0 l/m 0,0 km/h (0 Bft) SO 135 1,2 C 7,8 C 0,0 km/h (0 Bft)
20.11.2014 11:05 1,7 C 96 % 1023,9 hPa 0,0 l/m 0,0 km/h (0 Bft) SO 135 1,1 C 7,8 C 0,0 km/h (0 Bft)
20.11.2014 11:10 1,6 C 96 % 1023,9 hPa 0,0 l/m 0,0 km/h (0 Bft) SO 135 1,0 C 7,8 C 0,0 km/h (0 Bft)
20.11.2014 11:15 1,6 C 96 % 1023,9 hPa 0,0 l/m 0,0 km/h (0 Bft) SO 135 1,0 C 7,8 C 0,0 km/h (0 Bft)
20.11.2014 11:20 1,6 C 96 % 1023,8 hPa 0,0 l/m 0,0 km/h (0 Bft) SO 135 1,0 C 7,8 C 0,0 km/h (0 Bft)
20.11.2014 11:25 1,8 C 96 % 1023,8 hPa 0,0 l/m 0,0 km/h (0 Bft) SO 135 1,2 C 7,8 C 0,0 km/h (0 Bft)
20.11.2014 11:30 1,8 C 96 % 1023,8 hPa 0,0 l/m 0,0 km/h (0 Bft) SO 135 1,2 C 7,8 C 0,0 km/h (0 Bft)
20.11.2014 11:35 2,1 C 96 % 1023,8 hPa 0,0 l/m 0,0 km/h (0 Bft) SO 135 1,5 C 7,8 C 0,0 km/h (0 Bft)
20.11.2014 11:40 2,1 C 96 % 1023,8 hPa 0,0 l/m 0,0 km/h (0 Bft) SO 135 1,5 C 7,8 C 0,0 km/h (0 Bft)
20.11.2014 11:45 2,4 C 96 % 1023,8 hPa 0,0 l/m 0,0 km/h (0 Bft) SO 135 1,8 C 7,8 C 0,0 km/h (0 Bft)
20.11.2014 11:50 2,5 C 96 % 1023,8 hPa 0,0 l/m 0,0 km/h (0 Bft) SO 135 1,9 C 7,8 C 0,0 km/h (0 Bft)
20.11.2014 11:55 2,5 C 96 % 1023,8 hPa 0,0 l/m 0,0 km/h (0 Bft) SO 135 1,9 C 7,8 C 0,0 km/h (0 Bft)
20.11.2014 12:00 2,6 C 96 % 1023,6 hPa 0,0 l/m 0,0 km/h (0 Bft) SO 135 2,0 C 7,8 C 0,0 km/h (0 Bft)
20.11.2014 12:05 2,7 C 96 % 1023,6 hPa 0,0 l/m 0,0 km/h (0 Bft) SO 135 2,1 C 7,8 C 0,0 km/h (0 Bft)
20.11.2014 12:10 2,8 C 96 % 1023,6 hPa 0,0 l/m 0,0 km/h (0 Bft) SO 135 2,2 C 7,8 C 0,0 km/h (0 Bft)
20.11.2014 12:15 2,8 C 97 % 1023,6 hPa 0,0 l/m 0,0 km/h (0 Bft) SO 135 2,4 C 7,8 C 0,0 km/h (0 Bft)
20.11.2014 12:20 2,9 C 97 % 1023,5 hPa 0,0 l/m 0,0 km/h (0 Bft) SO 135 2,5 C 7,8 C 0,0 km/h (0 Bft)
20.11.2014 12:25 2,8 C 97 % 1023,5 hPa 0,0 l/m 0,0 km/h (0 Bft) SO 135 2,4 C 7,8 C 0,0 km/h (0 Bft)
20.11.2014 12:30 3,0 C 96 % 1023,5 hPa 0,0 l/m 0,0 km/h (0 Bft) SO 135 2,4 C 7,8 C 0,0 km/h (0 Bft)
20.11.2014 12:35 3,1 C 96 % 1023,5 hPa 0,0 l/m 0,0 km/h (0 Bft) SO 135 2,5 C 7,8 C 0,0 km/h (0 Bft)
20.11.2014 12:40 3,3 C 96 % 1023,9 hPa 0,0 l/m 0,0 km/h (0 Bft) SO 135 2,7 C 7,8 C 0,0 km/h (0 Bft)
20.11.2014 12:45 3,3 C 96 % 1023,9 hPa 0,0 l/m 0,0 km/h (0 Bft) SO 135 2,7 C 7,8 C 0,0 km/h (0 Bft)
20.11.2014 12:50 3,4 C 96 % 1023,9 hPa 0,0 l/m 0,0 km/h (0 Bft) SO 135 2,8 C 7,8 C 0,0 km/h (0 Bft)
20.11.2014 12:55 3,9 C 96 % 1023,9 hPa 0,0 l/m 0,0 km/h (0 Bft) SO 135 3,3 C 7,8 C 0,0 km/h (0 Bft)
20.11.2014 13:00 4,0 C 95 % 1023,6 hPa 0,0 l/m 0,0 km/h (0 Bft) SO 135 3,3 C 7,8 C 0,0 km/h (0 Bft)
20.11.2014 13:05 3,9 C 96 % 1023,6 hPa 0,0 l/m 0,0 km/h (0 Bft) SO 135 3,3 C 7,8 C 0,0 km/h (0 Bft)
20.11.2014 13:10 4,1 C 95 % 1023,6 hPa 0,0 l/m 0,0 km/h (0 Bft) SO 135 3,4 C 7,8 C 0,0 km/h (0 Bft)
20.11.2014 13:15 4,2 C 95 % 1023,6 hPa 0,0 l/m 0,0 km/h (0 Bft) SO 135 3,5 C 7,8 C 0,0 km/h (0 Bft)
20.11.2014 13:20 4,3 C 95 % 1023,4 hPa 0,0 l/m 0,0 km/h (0 Bft) SO 135 3,6 C 7,8 C 0,0 km/h (0 Bft)
20.11.2014 13:25 4,2 C 95 % 1023,4 hPa 0,0 l/m 0,0 km/h (0 Bft) SO 135 3,5 C 7,8 C 0,0 km/h (0 Bft)
20.11.2014 13:30 4,2 C 95 % 1023,4 hPa 0,0 l/m 0,0 km/h (0 Bft) SO 135 3,5 C 7,8 C 0,0 km/h (0 Bft)
20.11.2014 13:35 4,1 C 94 % 1023,4 hPa 0,0 l/m 0,0 km/h (0 Bft) SO 135 3,2 C 7,8 C 0,0 km/h (0 Bft)
20.11.2014 13:40 4,2 C 94 % 1023,5 hPa 0,0 l/m 0,0 km/h (0 Bft) SO 135 3,3 C 7,8 C 0,0 km/h (0 Bft)
20.11.2014 13:45 4,2 C 94 % 1023,5 hPa 0,0 l/m 0,0 km/h (0 Bft) SO 135 3,3 C 7,8 C 0,0 km/h (0 Bft)
20.11.2014 13:50 4,3 C 93 % 1023,5 hPa 0,0 l/m 0,0 km/h (0 Bft) SO 135 3,3 C 7,8 C 0,0 km/h (0 Bft)
20.11.2014 13:55 4,5 C 92 % 1023,5 hPa 0,0 l/m 0,0 km/h (0 Bft) SO 135 3,3 C 7,8 C 0,0 km/h (0 Bft)
20.11.2014 14:00 4,7 C 91 % 1023,8 hPa 0,0 l/m 0,0 km/h (0 Bft) SO 135 3,4 C 7,8 C 0,0 km/h (0 Bft)
20.11.2014 14:05 4,7 C 89 % 1023,8 hPa 0,0 l/m 0,0 km/h (0 Bft) SO 135 3,0 C 7,8 C 0,0 km/h (0 Bft)
20.11.2014 14:10 4,7 C 88 % 1023,8 hPa 0,0 l/m 0,0 km/h (0 Bft) SO 135 2,9 C 7,8 C 0,0 km/h (0 Bft)
20.11.2014 14:15 4,6 C 86 % 1023,8 hPa 0,0 l/m 0,0 km/h (0 Bft) SO 135 2,5 C 7,8 C 0,0 km/h (0 Bft)
20.11.2014 14:20 4,7 C 87 % 1023,9 hPa 0,0 l/m 0,0 km/h (0 Bft) SO 135 2,7 C 7,8 C 0,0 km/h (0 Bft)
20.11.2014 14:25 4,6 C 87 % 1023,9 hPa 0,0 l/m 0,0 km/h (0 Bft) SO 135 2,6 C 7,8 C 0,0 km/h (0 Bft)
20.11.2014 14:30 4,5 C 88 % 1023,9 hPa 0,0 l/m 0,0 km/h (0 Bft) SO 135 2,7 C 7,8 C 0,0 km/h (0 Bft)
20.11.2014 14:35 4,6 C 88 % 1023,9 hPa 0,0 l/m 0,0 km/h (0 Bft) SO 135 2,8 C 7,8 C 0,0 km/h (0 Bft)
20.11.2014 14:40 4,7 C 88 % 1023,9 hPa 0,0 l/m 0,0 km/h (0 Bft) SO 135 2,9 C 7,8 C 0,0 km/h (0 Bft)
20.11.2014 14:45 4,5 C 88 % 1023,9 hPa 0,0 l/m 0,0 km/h (0 Bft) SO 135 2,7 C 7,8 C 0,0 km/h (0 Bft)
20.11.2014 14:50 4,5 C 88 % 1023,9 hPa 0,0 l/m 0,0 km/h (0 Bft) SO 135 2,7 C 7,8 C 0,0 km/h (0 Bft)
20.11.2014 14:53 4,5 C 89 % 1023,9 hPa 0,0 l/m 0,0 km/h (0 Bft) SO 135 2,8 C 7,8 C 0,0 km/h (0 Bft)
20.11.2014 14:55 4,5 C 89 % 1023,9 hPa 0,0 l/m 0,0 km/h (0 Bft) SO 135 2,8 C 7,8 C 0,0 km/h (0 Bft)
20.11.2014 15:00 4,5 C 89 % 1023,8 hPa 0,0 l/m 0,0 km/h (0 Bft) SO 135 2,8 C 7,8 C 0,0 km/h (0 Bft)
20.11.2014 15:05 4,3 C 89 % 1023,8 hPa 0,0 l/m 0,0 km/h (0 Bft) SO 135 2,7 C 7,8 C 0,0 km/h (0 Bft)
20.11.2014 15:10 4,2 C 90 % 1023,8 hPa 0,0 l/m 0,0 km/h (0 Bft) SO 135 2,7 C 7,8 C 0,0 km/h (0 Bft)
20.11.2014 15:15 4,1 C 90 % 1023,8 hPa 0,0 l/m 0,0 km/h (0 Bft) SO 135 2,6 C 7,8 C 0,0 km/h (0 Bft)
20.11.2014 15:20 4,1 C 91 % 1023,8 hPa 0,0 l/m 0,0 km/h (0 Bft) SO 135 2,8 C 7,8 C 0,0 km/h (0 Bft)
20.11.2014 15:25 3,9 C 91 % 1023,8 hPa 0,0 l/m 0,0 km/h (0 Bft) SO 135 2,6 C 7,8 C 0,0 km/h (0 Bft)
20.11.2014 15:30 3,9 C 92 % 1023,8 hPa 0,0 l/m 0,0 km/h (0 Bft) SO 135 2,7 C 7,8 C 0,0 km/h (0 Bft)
20.11.2014 15:35 3,7 C 92 % 1023,8 hPa 0,0 l/m 0,0 km/h (0 Bft) SO 135 2,5 C 7,8 C 0,0 km/h (0 Bft)
20.11.2014 15:40 3,6 C 92 % 1023,7 hPa 0,0 l/m 0,0 km/h (0 Bft) SO 135 2,4 C 7,8 C 0,0 km/h (0 Bft)
20.11.2014 15:45 3,3 C 93 % 1023,7 hPa 0,0 l/m 0,0 km/h (0 Bft) SO 135 2,3 C 7,8 C 0,0 km/h (0 Bft)
20.11.2014 15:50 3,3 C 93 % 1023,7 hPa 0,0 l/m 0,0 km/h (0 Bft) SO 135 2,3 C 7,8 C 0,0 km/h (0 Bft)
20.11.2014 15:55 3,6 C 93 % 1023,7 hPa 0,0 l/m 0,0 km/h (0 Bft) SO 135 2,6 C 7,8 C 0,0 km/h (0 Bft)
20.11.2014 16:00 3,8 C 93 % 1023,9 hPa 0,0 l/m 0,0 km/h (0 Bft) SO 135 2,8 C 7,8 C 0,0 km/h (0 Bft)
20.11.2014 16:05 3,9 C 94 % 1023,9 hPa 0,0 l/m 0,0 km/h (0 Bft) SO 135 3,0 C 7,8 C 0,0 km/h (0 Bft)
20.11.2014 16:10 3,9 C 94 % 1023,9 hPa 0,0 l/m 0,0 km/h (0 Bft) SO 135 3,0 C 7,8 C 0,0 km/h (0 Bft)
20.11.2014 16:15 4,0 C 94 % 1023,9 hPa 0,0 l/m 0,0 km/h (0 Bft) SO 135 3,1 C 7,8 C 0,0 km/h (0 Bft)
20.11.2014 16:20 4,0 C 94 % 1023,8 hPa 0,0 l/m 0,0 km/h (0 Bft) SO 135 3,1 C 7,8 C 0,0 km/h (0 Bft)
20.11.2014 16:25 4,0 C 94 % 1023,8 hPa 0,0 l/m 0,0 km/h (0 Bft) SO 135 3,1 C 7,8 C 0,0 km/h (0 Bft)
20.11.2014 16:30 4,0 C 94 % 1023,8 hPa 0,0 l/m 0,0 km/h (0 Bft) SO 135 3,1 C 7,8 C 0,0 km/h (0 Bft)
20.11.2014 16:35 4,0 C 94 % 1023,8 hPa 0,0 l/m 0,0 km/h (0 Bft) SO 135 3,1 C 7,8 C 0,0 km/h (0 Bft)
20.11.2014 16:40 3,9 C 95 % 1023,1 hPa 0,0 l/m 0,0 km/h (0 Bft) SO 135 3,2 C 7,8 C 0,0 km/h (0 Bft)
20.11.2014 16:45 3,8 C 95 % 1023,1 hPa 0,0 l/m 0,0 km/h (0 Bft) SO 135 3,1 C 7,8 C 0,0 km/h (0 Bft)
20.11.2014 16:50 3,8 C 95 % 1023,1 hPa 0,0 l/m 0,0 km/h (0 Bft) SO 135 3,1 C 7,8 C 0,0 km/h (0 Bft)
20.11.2014 16:55 3,8 C 95 % 1023,1 hPa 0,0 l/m 0,0 km/h (0 Bft) SO 135 3,1 C 7,8 C 0,0 km/h (0 Bft)
20.11.2014 17:00 3,8 C 95 % 1022,4 hPa 0,0 l/m 0,0 km/h (0 Bft) SO 135 3,1 C 7,8 C 0,0 km/h (0 Bft)
20.11.2014 17:05 3,7 C 95 % 1022,4 hPa 0,0 l/m 0,0 km/h (0 Bft) SO 135 3,0 C 7,8 C 0,0 km/h (0 Bft)
20.11.2014 17:10 3,7 C 95 % 1022,4 hPa 0,0 l/m 0,0 km/h (0 Bft) SO 135 3,0 C 7,8 C 0,0 km/h (0 Bft)
20.11.2014 17:15 3,7 C 95 % 1022,4 hPa 0,0 l/m 0,0 km/h (0 Bft) SO 135 3,0 C 7,8 C 0,0 km/h (0 Bft)
20.11.2014 17:20 3,7 C 95 % 1022,2 hPa 0,0 l/m 0,0 km/h (0 Bft) SO 135 3,0 C 7,8 C 0,0 km/h (0 Bft)
20.11.2014 17:25 3,7 C 95 % 1022,2 hPa 0,0 l/m 0,0 km/h (0 Bft) SO 135 3,0 C 7,8 C 0,0 km/h (0 Bft)
20.11.2014 17:30 3,7 C 95 % 1022,2 hPa 0,0 l/m 0,0 km/h (0 Bft) SO 135 3,0 C 7,8 C 0,0 km/h (0 Bft)
20.11.2014 17:35 3,7 C 95 % 1022,2 hPa 0,0 l/m 0,0 km/h (0 Bft) SO 135 3,0 C 7,8 C 0,0 km/h (0 Bft)
20.11.2014 17:40 3,7 C 95 % 1022,4 hPa 0,0 l/m 0,0 km/h (0 Bft) SO 135 3,0 C 7,8 C 0,0 km/h (0 Bft)
20.11.2014 17:45 3,7 C 95 % 1022,4 hPa 0,0 l/m 0,0 km/h (0 Bft) SO 135 3,0 C 7,8 C 0,0 km/h (0 Bft)
20.11.2014 17:50 3,6 C 95 % 1022,4 hPa 0,0 l/m 0,0 km/h (0 Bft) SO 135 2,9 C 7,8 C 0,0 km/h (0 Bft)
20.11.2014 17:53 3,6 C 95 % 1022,4 hPa 0,0 l/m 0,0 km/h (0 Bft) SO 135 2,9 C 7,8 C 0,0 km/h (0 Bft)
20.11.2014 17:55 3,6 C 95 % 1022,4 hPa 0,0 l/m 0,0 km/h (0 Bft) SO 135 2,9 C 7,8 C 0,0 km/h (0 Bft)
20.11.2014 18:00 3,6 C 96 % 1022,2 hPa 0,0 l/m 0,0 km/h (0 Bft) SO 135 3,0 C 7,8 C 0,0 km/h (0 Bft)
20.11.2014 18:05 3,6 C 96 % 1022,2 hPa 0,0 l/m 0,0 km/h (0 Bft) SO 135 3,0 C 7,8 C 0,0 km/h (0 Bft)
20.11.2014 18:10 3,6 C 96 % 1022,2 hPa 0,0 l/m 0,0 km/h (0 Bft) SO 135 3,0 C 7,8 C 0,0 km/h (0 Bft)
20.11.2014 18:15 3,7 C 96 % 1022,2 hPa 0,0 l/m 0,0 km/h (0 Bft) SO 135 3,1 C 7,8 C 0,0 km/h (0 Bft)
20.11.2014 18:20 3,7 C 96 % 1022,1 hPa 0,0 l/m 0,0 km/h (0 Bft) SO 135 3,1 C 7,8 C 0,0 km/h (0 Bft)
20.11.2014 18:25 3,7 C 96 % 1022,1 hPa 0,0 l/m 0,0 km/h (0 Bft) SO 135 3,1 C 7,8 C 0,0 km/h (0 Bft)
20.11.2014 18:30 3,7 C 96 % 1022,1 hPa 0,0 l/m 0,0 km/h (0 Bft) SO 135 3,1 C 7,8 C 0,0 km/h (0 Bft)
20.11.2014 18:35 3,7 C 96 % 1022,1 hPa 0,0 l/m 0,0 km/h (0 Bft) SO 135 3,1 C 7,8 C 0,0 km/h (0 Bft)
20.11.2014 18:40 3,7 C 96 % 1022,2 hPa 0,0 l/m 0,0 km/h (0 Bft) SO 135 3,1 C 7,8 C 0,0 km/h (0 Bft)
20.11.2014 18:45 3,7 C 96 % 1022,2 hPa 0,0 l/m 0,0 km/h (0 Bft) SO 135 3,1 C 7,8 C 0,0 km/h (0 Bft)
20.11.2014 18:50 3,7 C 96 % 1022,2 hPa 0,0 l/m 0,0 km/h (0 Bft) SO 135 3,1 C 7,8 C 0,0 km/h (0 Bft)
20.11.2014 18:55 3,7 C 96 % 1022,2 hPa 0,0 l/m 0,0 km/h (0 Bft) SO 135 3,1 C 7,8 C 0,0 km/h (0 Bft)
20.11.2014 19:00 3,7 C 96 % 1022,1 hPa 0,0 l/m 0,0 km/h (0 Bft) SO 135 3,1 C 7,8 C 0,0 km/h (0 Bft)
20.11.2014 19:05 3,6 C 96 % 1022,1 hPa 0,0 l/m 0,0 km/h (0 Bft) SO 135 3,0 C 7,8 C 0,0 km/h (0 Bft)
20.11.2014 19:10 3,6 C 96 % 1022,1 hPa 0,0 l/m 0,0 km/h (0 Bft) SO 135 3,0 C 7,8 C 0,0 km/h (0 Bft)
20.11.2014 19:15 3,6 C 96 % 1022,1 hPa 0,0 l/m 0,0 km/h (0 Bft) SO 135 3,0 C 7,8 C 0,0 km/h (0 Bft)
20.11.2014 19:20 3,6 C 96 % 1022,2 hPa 0,0 l/m 0,0 km/h (0 Bft) SO 135 3,0 C 7,8 C 0,0 km/h (0 Bft)
20.11.2014 19:25 3,6 C 96 % 1022,2 hPa 0,0 l/m 0,0 km/h (0 Bft) SO 135 3,0 C 7,8 C 0,0 km/h (0 Bft)
20.11.2014 19:30 3,6 C 96 % 1022,2 hPa 0,0 l/m 0,0 km/h (0 Bft) SO 135 3,0 C 7,8 C 0,0 km/h (0 Bft)
20.11.2014 19:35 3,6 C 96 % 1022,2 hPa 0,0 l/m 0,0 km/h (0 Bft) SO 135 3,0 C 7,8 C 0,0 km/h (0 Bft)
20.11.2014 19:40 3,6 C 96 % 1022,3 hPa 0,0 l/m 0,0 km/h (0 Bft) SO 135 3,0 C 7,8 C 0,0 km/h (0 Bft)
20.11.2014 19:45 3,6 C 96 % 1022,3 hPa 0,0 l/m 0,0 km/h (0 Bft) SO 135 3,0 C 7,8 C 0,0 km/h (0 Bft)
20.11.2014 19:50 3,6 C 96 % 1022,3 hPa 0,0 l/m 0,0 km/h (0 Bft) SO 135 3,0 C 7,8 C 0,0 km/h (0 Bft)
20.11.2014 19:55 3,6 C 96 % 1022,3 hPa 0,0 l/m 0,0 km/h (0 Bft) SO 135 3,0 C 7,8 C 0,0 km/h (0 Bft)
20.11.2014 20:00 3,6 C 96 % 1022,4 hPa 0,0 l/m 0,0 km/h (0 Bft) SO 135 3,0 C 7,8 C 0,0 km/h (0 Bft)
20.11.2014 20:05 3,6 C 96 % 1022,4 hPa 0,0 l/m 0,0 km/h (0 Bft) SO 135 3,0 C 7,8 C 0,0 km/h (0 Bft)
20.11.2014 20:10 3,6 C 96 % 1022,4 hPa 0,0 l/m 0,0 km/h (0 Bft) SO 135 3,0 C 7,8 C 0,0 km/h (0 Bft)
20.11.2014 20:15 3,6 C 96 % 1022,4 hPa 0,0 l/m 0,0 km/h (0 Bft) SO 135 3,0 C 7,8 C 0,0 km/h (0 Bft)
20.11.2014 20:20 3,6 C 96 % 1022,9 hPa 0,0 l/m 0,0 km/h (0 Bft) SO 135 3,0 C 7,8 C 0,0 km/h (0 Bft)
20.11.2014 20:25 3,6 C 96 % 1022,9 hPa 0,0 l/m 0,0 km/h (0 Bft) SO 135 3,0 C 7,8 C 0,0 km/h (0 Bft)
20.11.2014 20:30 3,6 C 96 % 1022,9 hPa 0,0 l/m 0,0 km/h (0 Bft) SO 135 3,0 C 7,8 C 0,0 km/h (0 Bft)
20.11.2014 20:35 3,6 C 96 % 1022,9 hPa 0,0 l/m 0,0 km/h (0 Bft) SO 135 3,0 C 7,8 C 0,0 km/h (0 Bft)
20.11.2014 20:40 3,6 C 96 % 1023,3 hPa 0,0 l/m 0,0 km/h (0 Bft) SO 135 3,0 C 7,8 C 0,0 km/h (0 Bft)
20.11.2014 20:45 3,6 C 96 % 1023,3 hPa 0,0 l/m 0,0 km/h (0 Bft) SO 135 3,0 C 7,8 C 0,0 km/h (0 Bft)
20.11.2014 20:50 3,6 C 96 % 1023,3 hPa 0,0 l/m 0,0 km/h (0 Bft) SO 135 3,0 C 7,8 C 0,0 km/h (0 Bft)
20.11.2014 20:53 3,6 C 96 % 1023,3 hPa 0,0 l/m 0,0 km/h (0 Bft) SO 135 3,0 C 7,8 C 0,0 km/h (0 Bft)
20.11.2014 20:55 3,6 C 96 % 1023,3 hPa 0,0 l/m 0,0 km/h (0 Bft) SO 135 3,0 C 7,8 C 0,0 km/h (0 Bft)
20.11.2014 21:00 3,6 C 96 % 1023,4 hPa 0,0 l/m 0,0 km/h (0 Bft) SO 135 3,0 C 7,8 C 0,0 km/h (0 Bft)
20.11.2014 21:05 3,5 C 96 % 1023,4 hPa 0,0 l/m 0,0 km/h (0 Bft) SO 135 2,9 C 7,8 C 0,0 km/h (0 Bft)
20.11.2014 21:10 3,6 C 96 % 1023,4 hPa 0,0 l/m 0,0 km/h (0 Bft) SO 135 3,0 C 7,8 C 0,0 km/h (0 Bft)
20.11.2014 21:15 3,6 C 96 % 1023,4 hPa 0,0 l/m 0,0 km/h (0 Bft) SO 135 3,0 C 7,8 C 0,0 km/h (0 Bft)
20.11.2014 21:20 3,6 C 96 % 1023,5 hPa 0,0 l/m 0,0 km/h (0 Bft) SO 135 3,0 C 7,8 C 0,0 km/h (0 Bft)
20.11.2014 21:25 3,6 C 96 % 1023,5 hPa 0,0 l/m 0,0 km/h (0 Bft) SO 135 3,0 C 7,8 C 0,0 km/h (0 Bft)
20.11.2014 21:30 3,6 C 96 % 1023,5 hPa 0,0 l/m 0,0 km/h (0 Bft) SO 135 3,0 C 7,8 C 0,0 km/h (0 Bft)
20.11.2014 21:35 3,6 C 96 % 1023,5 hPa 0,0 l/m 0,0 km/h (0 Bft) SO 135 3,0 C 7,8 C 0,0 km/h (0 Bft)
20.11.2014 21:40 3,6 C 96 % 1023,6 hPa 0,0 l/m 0,0 km/h (0 Bft) SO 135 3,0 C 7,8 C 0,0 km/h (0 Bft)
20.11.2014 21:45 3,6 C 96 % 1023,6 hPa 0,0 l/m 0,0 km/h (0 Bft) SO 135 3,0 C 7,8 C 0,0 km/h (0 Bft)
20.11.2014 21:50 3,6 C 96 % 1023,6 hPa 0,0 l/m 0,0 km/h (0 Bft) SO 135 3,0 C 7,8 C 0,0 km/h (0 Bft)
20.11.2014 21:55 3,5 C 96 % 1023,6 hPa 0,0 l/m 0,0 km/h (0 Bft) SO 135 2,9 C 7,8 C 0,0 km/h (0 Bft)
20.11.2014 22:00 3,5 C 96 % 1023,7 hPa 0,0 l/m 0,0 km/h (0 Bft) SO 135 2,9 C 7,8 C 0,0 km/h (0 Bft)
20.11.2014 22:05 3,5 C 96 % 1023,7 hPa 0,0 l/m 0,0 km/h (0 Bft) SO 135 2,9 C 7,8 C 0,0 km/h (0 Bft)
20.11.2014 22:10 3,5 C 96 % 1023,7 hPa 0,0 l/m 0,0 km/h (0 Bft) SO 135 2,9 C 7,8 C 0,0 km/h (0 Bft)
20.11.2014 22:15 3,5 C 96 % 1023,7 hPa 0,0 l/m 0,0 km/h (0 Bft) SO 135 2,9 C 7,8 C 0,0 km/h (0 Bft)
20.11.2014 22:20 3,5 C 96 % 1023,8 hPa 0,0 l/m 0,0 km/h (0 Bft) SO 135 2,9 C 7,8 C 0,0 km/h (0 Bft)
20.11.2014 22:25 3,5 C 96 % 1023,8 hPa 0,0 l/m 0,0 km/h (0 Bft) SO 135 2,9 C 7,8 C 0,0 km/h (0 Bft)
20.11.2014 22:30 3,5 C 96 % 1023,8 hPa 0,0 l/m 0,0 km/h (0 Bft) SO 135 2,9 C 7,8 C 0,0 km/h (0 Bft)
20.11.2014 22:35 3,5 C 96 % 1023,8 hPa 0,0 l/m 0,0 km/h (0 Bft) SO 135 2,9 C 7,8 C 0,0 km/h (0 Bft)
20.11.2014 22:40 3,5 C 96 % 1023,8 hPa 0,0 l/m 0,0 km/h (0 Bft) SO 135 2,9 C 7,8 C 0,0 km/h (0 Bft)
20.11.2014 22:45 3,5 C 96 % 1023,8 hPa 0,0 l/m 0,0 km/h (0 Bft) SO 135 2,9 C 7,8 C 0,0 km/h (0 Bft)
20.11.2014 22:50 3,5 C 96 % 1023,8 hPa 0,0 l/m 0,0 km/h (0 Bft) SO 135 2,9 C 7,8 C 0,0 km/h (0 Bft)
20.11.2014 22:55 3,5 C 96 % 1023,8 hPa 0,0 l/m 0,0 km/h (0 Bft) SO 135 2,9 C 7,8 C 0,0 km/h (0 Bft)
20.11.2014 23:00 3,5 C 96 % 1023,6 hPa 0,0 l/m 0,0 km/h (0 Bft) SO 135 2,9 C 7,8 C 0,0 km/h (0 Bft)
20.11.2014 23:05 3,5 C 96 % 1023,6 hPa 0,0 l/m 0,0 km/h (0 Bft) SO 135 2,9 C 7,8 C 0,0 km/h (0 Bft)
20.11.2014 23:10 3,5 C 96 % 1023,6 hPa 0,0 l/m 0,0 km/h (0 Bft) SO 135 2,9 C 7,8 C 0,0 km/h (0 Bft)
20.11.2014 23:15 3,5 C 96 % 1023,6 hPa 0,0 l/m 0,0 km/h (0 Bft) SO 135 2,9 C 7,8 C 0,0 km/h (0 Bft)
20.11.2014 23:20 3,5 C 96 % 1023,2 hPa 0,0 l/m 0,0 km/h (0 Bft) SO 135 2,9 C 7,8 C 0,0 km/h (0 Bft)
20.11.2014 23:25 3,5 C 96 % 1023,2 hPa 0,0 l/m 0,0 km/h (0 Bft) SO 135 2,9 C 7,8 C 0,0 km/h (0 Bft)
20.11.2014 23:30 3,5 C 96 % 1023,2 hPa 0,0 l/m 0,0 km/h (0 Bft) SO 135 2,9 C 7,8 C 0,0 km/h (0 Bft)
20.11.2014 23:35 3,5 C 96 % 1023,2 hPa 0,0 l/m 0,0 km/h (0 Bft) SO 135 2,9 C 7,8 C 0,0 km/h (0 Bft)
20.11.2014 23:40 3,5 C 96 % 1023,1 hPa 0,0 l/m 0,0 km/h (0 Bft) SO 135 2,9 C 7,8 C 0,0 km/h (0 Bft)
20.11.2014 23:45 3,2 C 96 % 1023,1 hPa 0,0 l/m 0,0 km/h (0 Bft) SO 135 2,6 C 7,8 C 0,0 km/h (0 Bft)
20.11.2014 23:50 3,2 C 96 % 1023,1 hPa 0,0 l/m 0,0 km/h (0 Bft) SO 135 2,6 C 7,8 C 0,0 km/h (0 Bft)
20.11.2014 23:53 3,1 C 96 % 1023,1 hPa 0,0 l/m 0,0 km/h (0 Bft) SO 135 2,5 C 7,8 C 0,0 km/h (0 Bft)
20.11.2014 23:55 3,1 C 96 % 1023,1 hPa 0,0 l/m 0,0 km/h (0 Bft) SO 135 2,5 C 7,8 C 0,0 km/h (0 Bft)
_ Min-Zeit 06:55 14:15 06:15 - 23:55 - - 06:55 23:55 23:55
Minimum _ -2,8 C 86 % 1021,9 hPa - 0,0 km/h (0 Bft) - - -3,3 C 7,8 C 0,0 km/h (0 Bft)
_ Max-Zeit 14:40 12:25 09:15 23:55 23:55 - - 13:20 23:55 23:55
Maximum _ 4,7 C 97 % 1024,6 hPa 0,0 l/m 0,0 km/h
SO (0 Bft)
- - 3,6 C 7,8 C 0,0 km/h
SO (0 Bft)
Durchschnitt _ 1,5 C 96 % 1023,4 hPa #0,0 l/m 0,0 km/h (0 Bft) - - - 0,9 C 7,8 C 0,0 km/h (0 Bft)